Change the Weather History Date:

Friday, October 28, 2011

  Actual Average (KBGD) Record (KBGD)
Temperature  
Mean Temperature 42 °F 56 °F  
Max Temperature 55 °F 69 °F 84 °F (2001)
Min Temperature 30 °F 43 °F 26 °F (1970)
Degree Days  
Heating Degree Days 22 10  
Month to date heating degree days 162  
Since 1 July heating degree days 190  
Cooling Degree Days 0 1  
Month to date cooling degree days 52  
Year to date cooling degree days 1837  
Moisture  
Dew Point 26 °F    
Average Humidity 64    
Maximum Humidity 100    
Minimum Humidity 21    
Precipitation  
Precipitation 0.00 in 0.05 in 0.41 in (1991)
Month to date precipitation 1.58  
Year to date precipitation 19.97  
Snow  
Snow 0.00 in - 2.00 in (1976)
Month to date snowfall  
Since 1 July snowfall  
Since 1 September snowfall  
Snow Depth -    
Sea Level Pressure  
Sea Level Pressure 30.26 in    
Wind  
Wind Speed 6 mph (WNW)    
Max Wind Speed 10 mph    
Max Gust Speed -    
Visibility 10 miles    
Events      
T = Trace of Precipitation, MM = Missing Value Source: NWS Daily Summary

Daily Weather History Graph

Daily Weather History Graph

Search for Another Location

Airport or City:

Trip Planner

Search our weather history database for the weather conditions in past years. The results will help you decide how hot, cold, wet, or windy it might be!

Date:

Astronomy

Oct. 28, 2011 Rise Set
Actual Time 8:06 AM CDT 6:56 PM CDT
Civil Twilight 7:40 AM CDT 7:23 PM CDT
Nautical Twilight 7:09 AM CDT 7:53 PM CDT
Astronomical Twilight 6:40 AM CDT 8:22 PM CDT
Moon 10:18 AM CDT (10/28) 8:27 PM CDT (10/28)
Length of Visible Light 11h 43m
Length of Day
10h 50m
Waxing Crescent, 5% of the Moon is Illuminated
Oct 28
Waxing Crescent
Nov 2
First Quarter
Nov 10
Full
Nov 18
Last Quarter
Nov 25
New

Hourly Weather History & Observations

Time (CDT) Temp. Windchill Dew Point Humidity Pressure Visibility Wind Dir Wind Speed Gust Speed Precip Events Conditions
12:15 AM 32.0 °F 25.6 °F 30.2 °F 93% 30.20 in 10.0 mi WSW 6.9 mph - N/A   Clear
12:35 AM 30.2 °F 23.4 °F 30.2 °F 100% 30.20 in 10.0 mi WSW 6.9 mph - N/A   Clear
12:55 AM 30.2 °F 23.4 °F 30.2 °F 100% 30.20 in 10.0 mi WSW 6.9 mph - N/A   Clear
1:15 AM 32.0 °F 24.2 °F 30.2 °F 93% 30.21 in 10.0 mi WSW 9.2 mph - N/A   Clear
1:35 AM 32.0 °F 24.2 °F 30.2 °F 93% 30.22 in 10.0 mi West 9.2 mph - N/A   Clear
1:55 AM 32.0 °F 25.6 °F 30.2 °F 93% 30.22 in 10.0 mi WSW 6.9 mph - N/A   Clear
2:15 AM 32.0 °F 25.6 °F 30.2 °F 93% 30.22 in 10.0 mi WSW 6.9 mph - N/A   Clear
2:35 AM 32.0 °F 24.8 °F 30.2 °F 93% 30.22 in 10.0 mi West 8.1 mph - N/A   Clear
3:15 AM 32.0 °F 25.6 °F 30.2 °F 93% 30.22 in 10.0 mi West 6.9 mph - N/A   Clear
3:35 AM 30.2 °F 24.3 °F 28.4 °F 93% 30.22 in 10.0 mi West 5.8 mph - N/A   Clear
3:55 AM 30.2 °F 23.4 °F 28.4 °F 93% 30.22 in 10.0 mi WSW 6.9 mph - N/A   Clear
4:15 AM 32.0 °F 26.4 °F 30.2 °F 93% 30.22 in 10.0 mi West 5.8 mph - N/A   Clear
4:35 AM 32.0 °F 27.5 °F 30.2 °F 93% 30.22 in 10.0 mi WSW 4.6 mph - N/A   Clear
4:55 AM 32.0 °F 26.4 °F 30.2 °F 93% 30.21 in 10.0 mi WSW 5.8 mph - N/A   Clear
5:15 AM 30.2 °F 23.4 °F 28.4 °F 93% 30.21 in 10.0 mi WSW 6.9 mph - N/A   Clear
5:35 AM 30.2 °F 22.6 °F 28.4 °F 93% 30.21 in 10.0 mi WSW 8.1 mph - N/A   Clear
5:55 AM 32.0 °F 25.6 °F 30.2 °F 93% 30.21 in 10.0 mi West 6.9 mph - N/A   Clear
6:15 AM 30.2 °F 21.9 °F 28.4 °F 93% 30.23 in 10.0 mi West 9.2 mph - N/A   Clear
6:35 AM 32.0 °F 24.8 °F 30.2 °F 93% 30.25 in 10.0 mi West 8.1 mph - N/A   Clear
6:55 AM 32.0 °F 24.2 °F 30.2 °F 93% 30.25 in 10.0 mi West 9.2 mph - N/A   Clear
7:15 AM 32.0 °F 24.2 °F 30.2 °F 93% 30.25 in 10.0 mi West 9.2 mph - N/A   Clear
7:35 AM 30.2 °F 23.4 °F 28.4 °F 93% 30.25 in 10.0 mi West 6.9 mph - N/A   Clear
7:55 AM 30.2 °F 22.6 °F 28.4 °F 93% 30.26 in 10.0 mi West 8.1 mph - N/A   Clear
8:15 AM 32.0 °F 24.8 °F 30.2 °F 93% 30.26 in 10.0 mi WNW 8.1 mph - N/A   Clear
8:35 AM 32.0 °F 24.2 °F 30.2 °F 93% 30.27 in 10.0 mi WNW 9.2 mph - N/A   Clear
8:55 AM 32.0 °F 25.6 °F 30.2 °F 93% 30.28 in 10.0 mi WNW 6.9 mph - N/A   Clear
9:15 AM 33.8 °F 28.6 °F 32.0 °F 93% 30.29 in 10.0 mi WNW 5.8 mph - N/A   Clear
9:35 AM 35.6 °F 29.9 °F 32.0 °F 87% 30.30 in 10.0 mi NW 6.9 mph - N/A   Clear
9:55 AM 37.4 °F 32.1 °F 33.8 °F 87% 30.30 in 10.0 mi NW 6.9 mph - N/A   Clear
10:15 AM 41.0 °F 35.2 °F 35.6 °F 81% 30.31 in 10.0 mi NNW 9.2 mph - N/A   Clear
10:35 AM 42.8 °F 37.5 °F 33.8 °F 70% 30.31 in 10.0 mi North 9.2 mph - N/A   Clear
10:55 AM 46.4 °F 41.5 °F 33.8 °F 62% 30.31 in 10.0 mi North 10.4 mph - N/A   Clear
11:15 AM 46.4 °F 41.9 °F 33.8 °F 62% 30.31 in 10.0 mi North 9.2 mph - N/A   Clear
11:35 AM 50.0 °F - 32.0 °F 50% 30.31 in 10.0 mi North 6.9 mph - N/A   Clear
11:55 AM 50.0 °F - 32.0 °F 50% 30.31 in 10.0 mi North 6.9 mph - N/A   Clear
12:15 PM 50.0 °F - 32.0 °F 50% 30.32 in 10.0 mi NNE 6.9 mph - N/A   Clear
12:35 PM 50.0 °F - 28.4 °F 43% 30.32 in 10.0 mi NNE 4.6 mph - N/A   Clear
12:55 PM 50.0 °F - 28.4 °F 43% 30.31 in 10.0 mi North 3.5 mph - N/A   Clear
1:15 PM 51.8 °F - 24.8 °F 35% 30.31 in 10.0 mi East 3.5 mph - N/A   Clear
1:35 PM 51.8 °F - 23.0 °F 33% 30.30 in 10.0 mi NE 4.6 mph - N/A   Clear
1:55 PM 53.6 °F - 21.2 °F 28% 30.29 in 10.0 mi Calm Calm - N/A   Clear
2:15 PM 53.6 °F - 21.2 °F 28% 30.28 in 10.0 mi North 4.6 mph - N/A   Clear
2:35 PM 53.6 °F - 21.2 °F 28% 30.28 in 10.0 mi North 5.8 mph - N/A   Clear
2:55 PM 53.6 °F - 17.6 °F 24% 30.27 in 10.0 mi Calm Calm - N/A   Clear
3:15 PM 55.4 °F - 15.8 °F 21% 30.27 in 10.0 mi Calm Calm - N/A   Clear
3:35 PM 55.4 °F - 17.6 °F 23% 30.27 in 10.0 mi NNW 4.6 mph - N/A   Clear
3:55 PM 55.4 °F - 17.6 °F 23% 30.27 in 10.0 mi NE 6.9 mph - N/A   Clear
4:15 PM 55.4 °F - 17.6 °F 23% 30.27 in 10.0 mi NNE 4.6 mph - N/A   Clear
4:35 PM 55.4 °F - 17.6 °F 23% 30.27 in 10.0 mi Calm Calm - N/A   Clear
4:55 PM 55.4 °F - 15.8 °F 21% 30.27 in 10.0 mi Calm Calm - N/A   Clear
5:15 PM 55.4 °F - 15.8 °F 21% 30.27 in 10.0 mi Calm Calm - N/A   Clear
5:35 PM 55.4 °F - 15.8 °F 21% 30.27 in 10.0 mi Calm Calm - N/A   Clear
5:55 PM 55.4 °F - 15.8 °F 21% 30.28 in 10.0 mi Calm Calm - N/A   Clear
6:15 PM 55.4 °F - 15.8 °F 21% 30.27 in 10.0 mi Calm Calm - N/A   Clear
6:35 PM 53.6 °F - 15.8 °F 22% 30.27 in 10.0 mi Calm Calm - N/A   Clear
6:55 PM 51.8 °F - 17.6 °F 26% 30.28 in 10.0 mi Calm Calm - N/A   Clear
7:15 PM 51.8 °F - 15.8 °F 24% 30.28 in 10.0 mi Calm Calm - N/A   Clear
7:35 PM 48.2 °F - 17.6 °F 30% 30.28 in 10.0 mi Calm Calm - N/A   Clear
8:15 PM 44.6 °F 42.2 °F 17.6 °F 34% 30.28 in 10.0 mi South 4.6 mph - N/A   Clear
8:35 PM 42.8 °F 37.5 °F 28.4 °F 57% 30.29 in 10.0 mi SW 9.2 mph - N/A   Clear
8:55 PM 39.2 °F 33.0 °F 30.2 °F 70% 30.29 in 10.0 mi SW 9.2 mph - N/A   Clear
9:15 PM 39.2 °F 33.0 °F 32.0 °F 75% 30.28 in 10.0 mi SW 9.2 mph - N/A   Clear
9:35 PM 39.2 °F 32.5 °F 32.0 °F 75% 30.28 in 10.0 mi SW 10.4 mph - N/A   Clear
9:55 PM 39.2 °F 32.5 °F 32.0 °F 75% 30.28 in 10.0 mi SW 10.4 mph - N/A   Clear
10:15 PM 37.4 °F 30.8 °F 32.0 °F 81% 30.27 in 10.0 mi SW 9.2 mph - N/A   Clear
10:35 PM 37.4 °F 30.8 °F 32.0 °F 81% 30.27 in 10.0 mi SW 9.2 mph - N/A   Clear
10:55 PM 35.6 °F 28.0 °F 32.0 °F 87% 30.27 in 10.0 mi SW 10.4 mph - N/A   Clear
11:15 PM 35.6 °F 29.2 °F 32.0 °F 87% 30.27 in 10.0 mi SW 8.1 mph - N/A   Clear
11:35 PM 35.6 °F 28.0 °F 32.0 °F 87% 30.27 in 10.0 mi SW 10.4 mph - N/A   Clear
11:55 PM 35.6 °F 29.2 °F 30.2 °F 81% 30.26 in 10.0 mi SSW 8.1 mph - N/A   Clear